Weather in Mogoytui

Russia / Zabaykalsky Krai     51°16′53″N   114°55′46″E
temp.,
°C
wind,
m/s
gust,
m/s
humid.,
%
clouds,
%
prec.,
mm/h
press.,
hPa
HPBL,
m
17 april, sat
sat1700:00+2wsw34311 0.0 101545
03:000sw35445 0.0 101564
06:00−1sw35465 0.0 101580
09:00+4wsw46305 0.0 1014366
12:00+12wsw67205 0.0 10091339
15:00+16sw79175 0.0 10062526
18:00+16sw891791 0.0 10032011
21:00+11ssw36255 0.0 100467
18 april, sun
sun1800:00+8ssw22300 0.0 100313
03:00+6ssw22350 0.0 100310
06:00+5sw11415 0.0 100210
09:00+9w123325 0.0 1003252
12:00+13nw892783 0.0 10031220
15:00+12wnw121426100 0.0 10051786
18:00+10wnw1214165 0.0 10082246
21:00+4nnw812290 0.0 1014753
19 april, mon
mon1900:00+1nnw611230 0.0 1018517
03:00−2n59300 0.0 1023334
06:00−5nnw22360 0.0 102520
09:00−2nne23210 0.0 1026836
12:00+1ese21115 0.0 10241230
15:00+6s45105 0.0 10191730
18:00+8s58145 0.0 10151664
21:00+5sse813204 0.0 1013445
20 april, tue
tue2000:00+3s615245 0.0 1012417
03:00+4s59255 0.0 1009199
06:00+2sse47320 0.0 100999
09:00+6sse462797 0.0 1007296
12:00+14wnw242312 0.0 1005931
15:00+16wnw7825100 0.1 10052155
18:00+14nnw8722100 0.0 10061525
21:00+10nw4827100 0.0 1009231
21 april, wed
wed2100:00+8nw2226100 0.0 101023
03:00+6ne1140100 0.1 101215
06:00+4nnw46355 0.0 101393
09:00+7nne56190 0.0 1013571
12:00+11ne54180 0.0 10121143
15:00+14ne44185 0.0 10091377
18:00+15e4519100 0.0 10061442
21:00+11nne462795 0.0 100780